Total_Precipitation_Accumulation
0.03 0.06 0.06 0.09 0.09 0.12 0.15 0.18 0.21 0.22 0.21 0.26 0.29 0.40 0.57 0.75 0.75 0.78 0.89 0.99 0.97 1.09 1.20 1.48 1.99 2.68 3.17 3.33 3.36 3.49 3.41 3.43 3.44 3.35 3.39 3.59 3.76 3.78 3.73 3.82 3.88 3.73 3.62 3.67
0.05 0.06 0.07 0.08 0.10 0.12 0.18 0.20 0.23 0.25 0.23 0.23 0.33 0.47 0.63 0.74 0.75 0.81 0.94 0.95 0.92 0.95 1.12 1.51 1.89 2.32 2.74 3.09 3.21 3.34 3.28 3.48 3.73 4.04 4.45 4.74 4.90 4.83 4.69 4.63 4.52 4.36 4.21 4.15
0.05 0.04 0.03 0.04 0.09 0.12 0.18 0.16 0.22 0.30 0.31 0.28 0.38 0.68 0.77 0.82 0.93 1.05 1.10 1.15 1.16 1.05 1.19 1.49 1.69 2.01 2.35 2.70 2.93 3.07 3.32 3.77 4.22 4.76 5.50 5.88 5.72 5.36 5.19 4.92 4.82 4.60 4.33 4.23
0.02 0.02 0.03 0.05 0.07 0.10 0.13 0.12 0.17 0.24 0.29 0.33 0.34 0.71 0.96 1.02 1.20 1.37 1.25 1.17 1.20 1.23 1.27 1.39 1.55 1.80 2.04 2.40 2.79 3.11 3.52 4.09 4.68 5.17 5.67 5.95 5.90 5.66 5.42 5.00 4.63 4.27 3.94 3.71
0.03 0.04 0.08 0.12 0.08 0.08 0.09 0.10 0.13 0.17 0.22 0.29 0.33 0.55 1.02 1.25 1.34 1.47 1.34 1.26 1.16 1.18 1.16 1.24 1.34 1.52 1.83 2.25 2.70 3.10 3.51 4.10 4.63 5.14 5.50 5.74 5.80 5.68 5.33 4.70 4.11 3.74 3.43 3.17
0.04 0.05 0.10 0.10 0.07 0.07 0.09 0.10 0.13 0.20 0.23 0.35 0.33 0.54 1.13 1.49 1.57 1.51 1.44 1.40 1.24 1.13 1.10 1.08 1.16 1.32 1.68 2.02 2.51 2.89 3.21 3.88 4.57 5.10 5.46 5.69 5.70 5.42 4.83 4.22 3.69 3.37 3.10 2.82
0.10 0.10 0.10 0.08 0.09 0.09 0.12 0.17 0.32 0.40 0.45 0.48 0.38 0.59 1.13 1.26 1.28 1.36 1.30 1.22 1.18 1.08 0.98 1.00 1.14 1.20 1.49 1.86 2.22 2.57 2.94 3.41 3.91 4.34 4.59 4.73 4.78 4.56 4.19 3.83 3.40 3.05 2.79 2.54
0.22 0.19 0.12 0.08 0.07 0.07 0.11 0.18 0.41 0.55 0.57 0.56 0.59 1.01 1.43 1.28 1.23 1.27 1.29 1.13 1.09 1.10 1.05 1.06 1.18 1.22 1.31 1.57 1.89 2.28 2.59 2.89 3.14 3.32 3.50 3.46 3.42 3.39 3.27 2.94 2.55 2.27 2.04 1.89
0.22 0.21 0.11 0.06 0.04 0.05 0.09 0.15 0.18 0.30 0.36 0.59 0.88 1.18 1.56 1.49 1.49 1.33 1.25 1.18 1.14 1.10 1.07 1.12 1.22 1.23 1.29 1.43 1.66 1.89 2.03 2.22 2.27 2.21 2.23 2.29 2.33 2.32 2.25 2.11 1.85 1.54 1.33 1.23
0.17 0.16 0.12 0.08 0.07 0.06 0.10 0.14 0.20 0.40 0.59 0.79 0.99 1.47 1.96 1.99 1.83 1.57 1.31 1.17 1.04 1.04 1.08 1.14 1.22 1.32 1.36 1.37 1.55 1.66 1.63 1.62 1.67 1.70 1.67 1.63 1.66 1.69 1.69 1.62 1.47 1.29 1.12 0.98
0.16 0.18 0.16 0.12 0.15 0.16 0.16 0.19 0.23 0.38 0.50 0.86 1.19 1.77 1.89 2.05 1.97 1.82 1.68 1.32 1.09 1.06 1.10 1.20 1.21 1.21 1.19 1.17 1.19 1.23 1.28 1.33 1.34 1.31 1.32 1.32 1.26 1.22 1.21 1.25 1.22 1.11 0.98 0.86
0.19 0.19 0.27 0.22 0.19 0.16 0.17 0.21 0.27 0.50 0.60 0.67 1.04 1.80 1.67 2.02 2.09 1.88 1.71 1.42 1.25 1.15 1.17 1.19 1.19 1.11 1.07 1.05 1.05 1.04 1.05 1.07 1.12 1.13 1.11 1.11 1.01 0.97 0.96 0.95 0.94 0.90 0.89 0.85
0.18 0.26 0.44 0.55 0.50 0.32 0.25 0.21 0.24 0.32 0.49 0.64 1.03 1.79 1.80 1.94 2.04 1.76 1.53 1.43 1.38 1.36 1.39 1.39 1.30 1.13 1.01 0.98 0.97 0.90 0.86 0.85 0.82 0.85 0.88 0.94 0.89 0.83 0.82 0.78 0.78 0.81 0.82 0.81
0.15 0.34 0.63 1.00 0.89 0.50 0.37 0.27 0.24 0.32 0.56 0.68 0.92 1.40 1.67 1.79 1.73 1.61 1.55 1.46 1.46 1.46 1.37 1.32 1.28 1.17 1.09 0.97 0.91 0.83 0.77 0.73 0.70 0.68 0.68 0.75 0.78 0.75 0.72 0.73 0.73 0.69 0.68 0.69
0.19 0.37 0.43 0.39 0.33 0.33 0.35 0.31 0.30 0.38 0.48 0.72 0.98 1.27 1.53 1.75 1.78 1.76 1.63 1.52 1.48 1.46 1.42 1.42 1.34 1.20 1.16 1.07 0.97 0.86 0.78 0.70 0.66 0.69 0.72 0.73 0.72 0.67 0.68 0.71 0.70 0.62 0.57 0.54
0.21 0.29 0.37 0.38 0.32 0.33 0.40 0.40 0.39 0.43 0.54 0.74 1.00 1.37 1.64 1.84 1.89 1.78 1.62 1.54 1.59 1.54 1.45 1.38 1.28 1.22 1.18 1.09 1.03 0.92 0.83 0.74 0.73 0.80 0.83 0.79 0.76 0.73 0.70 0.67 0.64 0.59 0.55 0.52
0.25 0.38 0.59 0.57 0.42 0.55 0.85 0.70 0.64 0.67 0.69 0.88 1.14 1.36 1.55 1.78 1.88 1.84 1.71 1.72 1.79 1.69 1.68 1.59 1.42 1.31 1.30 1.18 1.04 0.96 0.89 0.84 0.84 0.83 0.80 0.78 0.77 0.73 0.63 0.56 0.59 0.59 0.58 0.54
0.31 0.49 0.70 0.68 0.80 1.26 1.14 0.67 0.65 0.77 0.72 0.72 0.89 1.03 1.22 1.43 1.51 1.57 1.63 1.74 1.85 1.80 1.75 1.64 1.52 1.44 1.36 1.24 1.13 1.03 0.93 0.86 0.80 0.79 0.75 0.69 0.68 0.68 0.58 0.56 0.59 0.57 0.58 0.59
0.25 0.52 0.85 0.90 1.14 1.30 1.11 0.69 0.59 0.86 1.07 0.79 0.76 0.86 0.98 1.01 1.23 1.51 1.48 1.48 1.63 1.65 1.62 1.55 1.48 1.47 1.37 1.23 1.11 1.02 0.93 0.82 0.73 0.72 0.68 0.60 0.54 0.53 0.53 0.52 0.55 0.59 0.61 0.63
0.27 0.49 0.88 1.06 1.38 1.55 1.21 0.58 0.49 0.86 1.44 0.98 0.88 0.88 1.04 1.13 1.39 1.44 1.24 1.23 1.34 1.39 1.38 1.35 1.31 1.28 1.26 1.16 1.06 1.00 0.93 0.82 0.67 0.58 0.49 0.47 0.48 0.47 0.52 0.55 0.57 0.54 0.59 0.64
0.63 0.72 0.90 1.13 1.53 1.47 0.77 0.42 0.57 1.31 1.49 0.99 0.98 1.03 1.07 1.16 1.21 1.08 1.00 1.16 1.29 1.28 1.26 1.17 1.11 1.09 1.06 0.98 0.87 0.82 0.78 0.68 0.48 0.38 0.37 0.40 0.41 0.42 0.43 0.53 0.57 0.54 0.53 0.57
0.95 1.12 1.21 1.32 1.57 1.53 0.66 0.53 0.92 1.14 0.83 0.85 0.92 0.91 0.93 0.84 0.80 0.86 0.95 1.13 1.22 1.24 1.21 1.09 1.00 0.91 0.83 0.76 0.76 0.72 0.61 0.45 0.34 0.33 0.35 0.37 0.36 0.31 0.32 0.47 0.50 0.50 0.55 0.51
1.04 1.26 1.34 1.45 1.52 1.11 0.65 0.61 0.64 0.69 0.74 0.74 0.79 0.76 0.76 0.77 0.77 0.83 0.95 1.05 1.15 1.11 1.03 0.89 0.79 0.71 0.64 0.66 0.68 0.61 0.47 0.36 0.30 0.35 0.39 0.37 0.32 0.31 0.31 0.38 0.41 0.42 0.49 0.48
1.13 1.07 1.12 1.20 1.17 0.92 0.73 0.60 0.56 0.58 0.63 0.62 0.66 0.71 0.77 0.81 0.83 0.86 0.89 0.93 0.98 0.95 0.84 0.71 0.64 0.63 0.63 0.62 0.53 0.46 0.34 0.32 0.35 0.41 0.41 0.37 0.38 0.36 0.30 0.29 0.27 0.29 0.32 0.35
1.00 1.15 1.31 1.32 1.22 1.04 0.86 0.66 0.60 0.61 0.64 0.67 0.70 0.71 0.72 0.78 0.83 0.85 0.85 0.81 0.80 0.75 0.68 0.58 0.57 0.57 0.57 0.50 0.42 0.35 0.31 0.30 0.38 0.39 0.34 0.31 0.31 0.30 0.29 0.24 0.19 0.18 0.19 0.20
0.71 1.03 1.40 1.43 1.14 1.05 0.99 0.85 0.73 0.77 0.84 0.81 0.73 0.71 0.70 0.68 0.65 0.59 0.58 0.59 0.60 0.59 0.52 0.47 0.45 0.42 0.39 0.36 0.34 0.30 0.27 0.25 0.31 0.35 0.33 0.28 0.26 0.24 0.20 0.21 0.20 0.15 0.14 0.15